Tulsa, OK

6:16 PM CDT on April 24, 2018 (GMT -0500)
Tulsa International

Weather History for KTUL - October, 2011

Change the Weather History Date:

Monday, October 31, 2011

  Actual Average Record
Temperature  
Mean Temperature 57 °F 57 °F  
Max Temperature 74 °F 68 °F 87 °F (1950)
Min Temperature 39 °F 46 °F 18 °F (1993)
Degree Days  
Heating Degree Days 8 9  
Month to date heating degree days 130 163  
Since 1 July heating degree days 153 186  
Cooling Degree Days 0 1  
Month to date cooling degree days 88 63  
Year to date cooling degree days 2725 2028  
Growing Degree Days 6 (Base 50)    
Moisture  
Dew Point 39 °F    
Average Humidity 53    
Maximum Humidity 79    
Minimum Humidity 27    
Precipitation  
Precipitation 0.00 in 0.12 in 6.40 in (1899)
Month to date precipitation 1.87 3.93  
Year to date precipitation 25.17 35.67  
Sea Level Pressure  
Sea Level Pressure 30.11 in    
Wind  
Wind Speed 7 mph (South)    
Max Wind Speed 18 mph    
Max Gust Speed 22 mph    
Visibility 10 miles    
Events      
T = Trace of Precipitation, MM = Missing Value Source: NWS Daily Summary

Daily Weather History Graph

Daily Weather History Graph

Search for Another Location

Airport or City:

Astronomy

Oct. 31, 2011 Rise Set
Actual Time 7:45 AM CDT 6:28 PM CDT
Civil Twilight 7:18 AM CDT 6:55 PM CDT
Nautical Twilight 6:48 AM CDT 7:25 PM CDT
Astronomical Twilight 6:18 AM CDT 7:55 PM CDT
Moon 12:49 PM CDT (10/31) 11:09 PM CDT (10/31)
Length of Visible Light 11h 36m
Length of Day
10h 43m
Waxing Crescent, 30% of the Moon is Illuminated
Oct 31
Waxing Crescent
Nov 2
First Quarter
Nov 10
Full
Nov 18
Last Quarter
Nov 25
New

Hourly Weather History & Observations

Time (CDT) Temp. Windchill Dew Point Humidity Pressure Visibility Wind Dir Wind Speed Gust Speed Precip Events Conditions
12:53 AM 41.0 °F - 36.0 °F 82% 30.17 in 10.0 mi Calm Calm - N/A   Clear
1:53 AM 45.0 °F 43.5 °F 36.0 °F 71% 30.16 in 10.0 mi South 3.5 mph - N/A   Clear
2:53 AM 45.0 °F - 35.1 °F 68% 30.17 in 10.0 mi Calm Calm - N/A   Clear
3:53 AM 43.0 °F - 36.0 °F 76% 30.16 in 10.0 mi Calm Calm - N/A   Clear
4:53 AM 39.9 °F - 34.0 °F 79% 30.14 in 10.0 mi Calm Calm - N/A   Clear
5:53 AM 42.1 °F - 35.1 °F 76% 30.16 in 10.0 mi Calm Calm - N/A   Clear
6:53 AM 42.1 °F - 34.0 °F 73% 30.15 in 10.0 mi Calm Calm - N/A   Clear
7:53 AM 39.9 °F 37.8 °F 34.0 °F 79% 30.16 in 10.0 mi SE 3.5 mph - N/A   Clear
8:53 AM 46.0 °F - 37.0 °F 71% 30.17 in 10.0 mi Calm Calm - N/A   Clear
9:53 AM 55.9 °F - 37.0 °F 49% 30.18 in 10.0 mi South 6.9 mph - N/A   Clear
10:53 AM 61.0 °F - 37.0 °F 41% 30.17 in 10.0 mi South 8.1 mph - N/A   Clear
11:53 AM 66.0 °F - 37.9 °F 36% 30.15 in 10.0 mi SSW 8.1 mph - N/A   Clear
12:53 PM 69.1 °F - 39.9 °F 35% 30.13 in 10.0 mi South 10.4 mph 17.3 mph N/A   Clear
1:53 PM 71.1 °F - 39.9 °F 32% 30.09 in 10.0 mi South 13.8 mph 17.3 mph N/A   Clear
2:53 PM 73.9 °F - 37.9 °F 27% 30.06 in 10.0 mi SSW 10.4 mph 21.9 mph N/A   Clear
3:53 PM 73.9 °F - 39.9 °F 29% 30.04 in 10.0 mi SSW 11.5 mph - N/A   Clear
4:53 PM 73.0 °F - 42.1 °F 33% 30.03 in 10.0 mi South 15.0 mph - N/A   Clear
5:53 PM 71.1 °F - 43.0 °F 36% 30.03 in 10.0 mi South 12.7 mph - N/A   Clear
6:53 PM 68.0 °F - 44.1 °F 42% 30.03 in 10.0 mi SSE 9.2 mph - N/A   Clear
7:53 PM 64.9 °F - 44.1 °F 47% 30.04 in 10.0 mi SSE 8.1 mph - N/A   Clear
8:53 PM 64.0 °F - 44.1 °F 48% 30.04 in 10.0 mi South 11.5 mph - N/A   Clear
9:53 PM 63.0 °F - 44.1 °F 50% 30.04 in 10.0 mi South 12.7 mph - N/A   Clear
10:53 PM 61.0 °F - 44.1 °F 54% 30.04 in 10.0 mi SSE 9.2 mph - N/A   Clear
11:53 PM 61.0 °F - 44.1 °F 54% 30.03 in 10.0 mi SSE 9.2 mph - N/A   Clear